QPF
0.09 0.12 0.11 0.12 0.13 0.17 0.20 0.22 0.21 0.23 0.25 0.23 0.19 0.17 0.15 0.11 0.10 0.07 0.06 0.08 0.12 0.11 0.12 0.14 0.15 0.15 0.15 0.14 0.13 0.11 0.10 0.08 0.06 0.04 0.03 0.02 0.03 0.02 0.01 0.01 0.00 0.00 0.01
0.17 0.20 0.17 0.14 0.11 0.09 0.11 0.14 0.14 0.19 0.23 0.21 0.19 0.18 0.15 0.12 0.09 0.06 0.05 0.05 0.07 0.08 0.10 0.12 0.13 0.15 0.16 0.15 0.13 0.12 0.11 0.10 0.07 0.05 0.03 0.02 0.02 0.03 0.03 0.03 0.03 0.02 0.02
0.20 0.21 0.17 0.13 0.09 0.08 0.08 0.11 0.12 0.14 0.15 0.13 0.12 0.13 0.12 0.10 0.07 0.05 0.04 0.03 0.02 0.04 0.06 0.08 0.09 0.12 0.16 0.19 0.17 0.15 0.12 0.10 0.08 0.06 0.04 0.02 0.02 0.02 0.03 0.05 0.08 0.07 0.04
0.19 0.19 0.14 0.10 0.07 0.06 0.06 0.06 0.06 0.07 0.07 0.06 0.05 0.06 0.04 0.04 0.03 0.03 0.02 0.01 0.01 0.02 0.02 0.05 0.06 0.08 0.14 0.19 0.21 0.21 0.17 0.11 0.08 0.06 0.06 0.05 0.04 0.03 0.03 0.04 0.06 0.08 0.06
0.20 0.15 0.09 0.06 0.05 0.04 0.03 0.03 0.02 0.02 0.02 0.02 0.02 0.02 0.02 0.02 0.01 0.01 0.01 0.01 0.01 0.01 0.01 0.01 0.03 0.06 0.11 0.18 0.21 0.21 0.19 0.15 0.11 0.10 0.11 0.11 0.10 0.07 0.05 0.05 0.05 0.06 0.05
0.16 0.11 0.06 0.04 0.03 0.02 0.01 0.01 0.01 0.01 0.00 0.00 0.00 0.00 0.00 0.00 0.00 0.00 0.00 0.00 0.00 0.01 0.01 0.01 0.01 0.02 0.05 0.10 0.13 0.15 0.17 0.17 0.17 0.18 0.19 0.18 0.16 0.12 0.07 0.05 0.05 0.05 0.05
0.16 0.09 0.05 0.03 0.02 0.01 0.01 0.01 0.01 0.00 0.00 0.00 0.00 0.00 0.00 0.00 0.00 0.00 0.00 0.00 0.00 0.00 0.00 0.01 0.01 0.01 0.01 0.03 0.06 0.09 0.15 0.18 0.19 0.19 0.20 0.20 0.19 0.15 0.11 0.09 0.07 0.06 0.04
0.14 0.08 0.05 0.03 0.02 0.01 0.01 0.00 0.00 0.00 0.00 0.00 0.00 0.00 0.00 0.00 0.00 0.00 0.00 0.00 0.00 0.00 0.00 0.00 0.00 0.00 0.00 0.01 0.01 0.04 0.09 0.15 0.20 0.21 0.21 0.21 0.22 0.18 0.15 0.13 0.10 0.08 0.06
0.11 0.08 0.04 0.03 0.02 0.01 0.01 0.00 0.00 0.00 0.00 0.00 0.00 0.00 0.00 0.00 0.00 0.00 0.00 0.00 0.00 0.00 0.00 0.00 0.00 0.00 0.00 0.00 0.00 0.02 0.05 0.09 0.17 0.21 0.21 0.20 0.20 0.20 0.18 0.16 0.14 0.10 0.07
0.10 0.08 0.06 0.04 0.02 0.01 0.00 0.00 0.00 0.00 0.00 0.00 0.00 0.00 0.00 0.00 0.00 0.00 0.00 0.00 0.00 0.00 0.00 0.00 0.00 0.00 0.01 0.00 0.01 0.01 0.02 0.04 0.10 0.17 0.20 0.21 0.20 0.18 0.18 0.18 0.17 0.14 0.09
0.13 0.12 0.10 0.07 0.05 0.02 0.01 0.00 0.00 0.00 0.00 0.00 0.00 0.00 0.00 0.00 0.00 0.00 0.00 0.00 0.00 0.00 0.00 0.00 0.00 0.01 0.01 0.01 0.01 0.02 0.03 0.04 0.06 0.07 0.09 0.11 0.16 0.15 0.13 0.14 0.17 0.18 0.15
0.15 0.14 0.14 0.12 0.09 0.06 0.03 0.02 0.01 0.00 0.00 0.00 0.00 0.00 0.00 0.00 0.00 0.00 0.00 0.00 0.00 0.00 0.00 0.00 0.00 0.00 0.01 0.01 0.02 0.03 0.04 0.03 0.03 0.04 0.05 0.07 0.09 0.10 0.10 0.11 0.13 0.14 0.15
0.11 0.13 0.12 0.13 0.14 0.13 0.10 0.06 0.02 0.01 0.00 0.00 0.00 0.00 0.00 0.00 0.00 0.00 0.00 0.00 0.00 0.00 0.00 0.00 0.00 0.00 0.00 0.01 0.01 0.02 0.03 0.03 0.03 0.03 0.04 0.06 0.07 0.08 0.08 0.07 0.07 0.08 0.09
0.06 0.07 0.08 0.09 0.13 0.16 0.15 0.12 0.07 0.04 0.02 0.01 0.00 0.00 0.00 0.00 0.00 0.00 0.00 0.00 0.00 0.00 0.00 0.00 0.00 0.00 0.01 0.01 0.02 0.02 0.02 0.03 0.03 0.03 0.04 0.03 0.04 0.05 0.05 0.04 0.03 0.03 0.03
0.02 0.03 0.05 0.07 0.09 0.13 0.15 0.14 0.12 0.09 0.06 0.04 0.02 0.01 0.00 0.00 0.00 0.00 0.00 0.00 0.01 0.00 0.00 0.00 0.00 0.01 0.01 0.02 0.03 0.02 0.03 0.04 0.04 0.04 0.03 0.02 0.02 0.02 0.01 0.02 0.02 0.02 0.01
0.01 0.02 0.03 0.04 0.06 0.09 0.11 0.13 0.14 0.13 0.09 0.05 0.04 0.02 0.01 0.01 0.00 0.00 0.00 0.00 0.00 0.01 0.00 0.00 0.00 0.01 0.01 0.01 0.02 0.02 0.03 0.04 0.03 0.03 0.02 0.02 0.02 0.01 0.01 0.01 0.01 0.01 0.01
0.00 0.00 0.01 0.03 0.04 0.07 0.09 0.10 0.12 0.14 0.11 0.08 0.05 0.03 0.02 0.01 0.01 0.00 0.00 0.00 0.00 0.01 0.01 0.00 0.01 0.01 0.01 0.01 0.02 0.01 0.01 0.01 0.01 0.02 0.01 0.01 0.01 0.01 0.01 0.00 0.00 0.01 0.01
0.00 0.00 0.00 0.00 0.02 0.04 0.06 0.09 0.12 0.15 0.14 0.11 0.09 0.06 0.03 0.02 0.01 0.00 0.00 0.00 0.00 0.00 0.01 0.01 0.01 0.02 0.02 0.02 0.02 0.01 0.01 0.01 0.01 0.01 0.01 0.01 0.00 0.00 0.00 0.00 0.00 0.00 0.00
0.00 0.00 0.00 0.00 0.00 0.01 0.02 0.04 0.07 0.12 0.16 0.16 0.13 0.09 0.06 0.04 0.02 0.01 0.01 0.00 0.00 0.00 0.01 0.01 0.02 0.03 0.03 0.04 0.03 0.02 0.02 0.01 0.01 0.01 0.01 0.00 0.00 0.00 0.00 0.00 0.00 0.00 0.00
0.00 0.00 0.00 0.00 0.00 0.00 0.00 0.01 0.02 0.04 0.08 0.13 0.17 0.16 0.12 0.08 0.05 0.03 0.01 0.01 0.01 0.00 0.01 0.01 0.02 0.04 0.05 0.05 0.04 0.03 0.03 0.02 0.01 0.01 0.00 0.00 0.00 0.00 0.00 0.00 0.00 0.00 0.00
0.00 0.00 0.00 0.00 0.00 0.00 0.00 0.00 0.00 0.01 0.03 0.05 0.09 0.13 0.16 0.16 0.11 0.07 0.04 0.02 0.01 0.00 0.01 0.01 0.02 0.04 0.06 0.07 0.06 0.03 0.02 0.02 0.02 0.01 0.00 0.00 0.00 0.00 0.00 0.00 0.00 0.00 0.00
0.00 0.00 0.00 0.00 0.00 0.00 0.00 0.00 0.00 0.00 0.01 0.02 0.04 0.07 0.09 0.14 0.16 0.12 0.07 0.04 0.02 0.01 0.01 0.01 0.02 0.03 0.03 0.03 0.02 0.02 0.02 0.01 0.02 0.02 0.01 0.00 0.00 0.00 0.00 0.00 0.00 0.00 0.00
0.00 0.00 0.00 0.00 0.00 0.00 0.00 0.00 0.00 0.00 0.00 0.00 0.01 0.04 0.07 0.08 0.12 0.14 0.10 0.06 0.03 0.01 0.01 0.01 0.01 0.01 0.01 0.02 0.02 0.03 0.03 0.02 0.01 0.01 0.00 0.01 0.00 0.00 0.00 0.00 0.00 0.00 0.00
0.02 0.01 0.00 0.00 0.00 0.00 0.00 0.00 0.00 0.00 0.00 0.00 0.01 0.02 0.04 0.07 0.09 0.10 0.10 0.06 0.03 0.01 0.01 0.01 0.01 0.02 0.02 0.02 0.03 0.03 0.04 0.03 0.02 0.01 0.01 0.01 0.00 0.00 0.00 0.00 0.00 0.00 0.00
0.04 0.02 0.01 0.00 0.00 0.00 0.00 0.00 0.00 0.00 0.00 0.00 0.01 0.02 0.03 0.04 0.07 0.09 0.09 0.07 0.04 0.02 0.01 0.01 0.03 0.05 0.06 0.06 0.05 0.04 0.04 0.03 0.02 0.01 0.00 0.00 0.00 0.00 0.00 0.00 0.00 0.00 0.00
0.06 0.03 0.01 0.00 0.00 0.00 0.00 0.00 0.00 0.00 0.00 0.00 0.01 0.03 0.04 0.05 0.06 0.06 0.07 0.07 0.04 0.02 0.01 0.02 0.05 0.07 0.09 0.09 0.08 0.05 0.03 0.02 0.01 0.01 0.00 0.00 0.00 0.00 0.00 0.00 0.00 0.00 0.00
MSLP
1012.79 1012.87 1012.90 1012.88 1012.82 1012.76 1012.71 1012.70 1012.72 1012.79 1012.89 1013.01 1013.14 1013.26 1013.36 1013.43 1013.48 1013.51 1013.51 1013.51 1013.52 1013.54 1013.60 1013.69 1013.83 1014.01 1014.23 1014.51 1014.82 1015.16 1015.53 1015.93 1016.35 1016.78 1017.21 1017.64 1018.04 1018.42 1018.75 1019.03 1019.28 1019.49 1019.71
1012.18 1012.34 1012.44 1012.48 1012.48 1012.46 1012.43 1012.42 1012.43 1012.48 1012.58 1012.69 1012.81 1012.93 1013.02 1013.09 1013.11 1013.11 1013.08 1013.05 1013.04 1013.05 1013.10 1013.20 1013.35 1013.54 1013.77 1014.03 1014.32 1014.63 1014.97 1015.35 1015.77 1016.21 1016.68 1017.15 1017.60 1018.03 1018.40 1018.71 1018.97 1019.19 1019.40
1011.51 1011.75 1011.93 1012.07 1012.15 1012.19 1012.21 1012.22 1012.25 1012.30 1012.39 1012.49 1012.61 1012.71 1012.79 1012.83 1012.83 1012.78 1012.72 1012.65 1012.59 1012.58 1012.62 1012.72 1012.88 1013.07 1013.30 1013.55 1013.82 1014.11 1014.42 1014.78 1015.18 1015.63 1016.11 1016.62 1017.11 1017.58 1017.99 1018.33 1018.61 1018.84 1019.05
1010.85 1011.15 1011.42 1011.65 1011.82 1011.94 1012.03 1012.08 1012.14 1012.21 1012.29 1012.40 1012.51 1012.60 1012.66 1012.67 1012.63 1012.53 1012.42 1012.29 1012.20 1012.15 1012.16 1012.25 1012.40 1012.59 1012.82 1013.06 1013.31 1013.58 1013.87 1014.21 1014.59 1015.03 1015.53 1016.05 1016.57 1017.06 1017.50 1017.87 1018.17 1018.42 1018.64
1010.27 1010.61 1010.94 1011.24 1011.49 1011.69 1011.84 1011.95 1012.04 1012.14 1012.23 1012.34 1012.45 1012.54 1012.58 1012.57 1012.49 1012.36 1012.19 1012.01 1011.86 1011.76 1011.73 1011.79 1011.91 1012.09 1012.31 1012.54 1012.79 1013.04 1013.32 1013.63 1014.00 1014.43 1014.91 1015.43 1015.97 1016.47 1016.93 1017.32 1017.63 1017.90 1018.13
1009.83 1010.16 1010.52 1010.86 1011.17 1011.42 1011.62 1011.78 1011.91 1012.03 1012.15 1012.27 1012.39 1012.49 1012.53 1012.52 1012.42 1012.26 1012.04 1011.80 1011.59 1011.43 1011.35 1011.36 1011.45 1011.60 1011.80 1012.02 1012.25 1012.49 1012.76 1013.05 1013.40 1013.81 1014.27 1014.78 1015.29 1015.79 1016.26 1016.65 1016.98 1017.26 1017.52
1009.56 1009.84 1010.17 1010.52 1010.84 1011.12 1011.34 1011.53 1011.68 1011.83 1011.98 1012.13 1012.28 1012.41 1012.49 1012.49 1012.40 1012.22 1011.97 1011.69 1011.42 1011.20 1011.05 1010.99 1011.03 1011.14 1011.30 1011.50 1011.72 1011.95 1012.19 1012.47 1012.79 1013.17 1013.60 1014.07 1014.56 1015.04 1015.49 1015.88 1016.22 1016.52 1016.78
1009.46 1009.66 1009.92 1010.22 1010.51 1010.77 1010.99 1011.18 1011.35 1011.52 1011.70 1011.90 1012.10 1012.28 1012.41 1012.46 1012.41 1012.24 1011.99 1011.68 1011.35 1011.07 1010.84 1010.71 1010.68 1010.73 1010.85 1011.02 1011.21 1011.41 1011.64 1011.90 1012.18 1012.53 1012.91 1013.34 1013.79 1014.24 1014.66 1015.04 1015.38 1015.68 1015.96
1009.49 1009.58 1009.75 1009.96 1010.19 1010.40 1010.59 1010.76 1010.92 1011.10 1011.32 1011.57 1011.84 1012.09 1012.30 1012.42 1012.42 1012.30 1012.06 1011.74 1011.38 1011.03 1010.74 1010.53 1010.42 1010.41 1010.48 1010.59 1010.75 1010.93 1011.13 1011.35 1011.60 1011.90 1012.24 1012.62 1013.02 1013.42 1013.81 1014.18 1014.51 1014.82 1015.11
1009.61 1009.59 1009.65 1009.76 1009.89 1010.02 1010.15 1010.28 1010.42 1010.61 1010.85 1011.16 1011.49 1011.83 1012.12 1012.33 1012.41 1012.35 1012.15 1011.84 1011.46 1011.08 1010.73 1010.45 1010.27 1010.19 1010.20 1010.27 1010.38 1010.53 1010.69 1010.88 1011.09 1011.35 1011.64 1011.96 1012.30 1012.66 1013.02 1013.36 1013.69 1013.99 1014.30
1009.76 1009.64 1009.59 1009.60 1009.63 1009.67 1009.72 1009.79 1009.90 1010.08 1010.34 1010.68 1011.08 1011.49 1011.87 1012.17 1012.33 1012.34 1012.19 1011.91 1011.54 1011.14 1010.76 1010.44 1010.21 1010.07 1010.03 1010.05 1010.13 1010.24 1010.38 1010.53 1010.71 1010.91 1011.16 1011.43 1011.72 1012.04 1012.36 1012.68 1012.99 1013.29 1013.60
1009.86 1009.68 1009.56 1009.47 1009.41 1009.35 1009.33 1009.33 1009.40 1009.56 1009.82 1010.18 1010.61 1011.08 1011.53 1011.90 1012.14 1012.22 1012.13 1011.90 1011.56 1011.18 1010.79 1010.46 1010.21 1010.05 1009.97 1009.97 1010.03 1010.11 1010.22 1010.35 1010.50 1010.66 1010.86 1011.09 1011.34 1011.62 1011.91 1012.20 1012.49 1012.78 1013.08
1009.89 1009.68 1009.50 1009.35 1009.21 1009.08 1008.98 1008.92 1008.94 1009.07 1009.31 1009.66 1010.11 1010.61 1011.09 1011.51 1011.81 1011.95 1011.92 1011.75 1011.47 1011.13 1010.79 1010.48 1010.25 1010.10 1010.04 1010.04 1010.09 1010.17 1010.27 1010.38 1010.51 1010.65 1010.80 1010.99 1011.21 1011.44 1011.69 1011.96 1012.22 1012.50 1012.77
1009.79 1009.59 1009.39 1009.21 1009.02 1008.84 1008.68 1008.57 1008.54 1008.62 1008.83 1009.16 1009.59 1010.08 1010.57 1011.00 1011.33 1011.52 1011.55 1011.45 1011.25 1010.99 1010.72 1010.48 1010.31 1010.22 1010.19 1010.23 1010.31 1010.41 1010.52 1010.64 1010.75 1010.87 1011.00 1011.16 1011.33 1011.53 1011.74 1011.97 1012.21 1012.44 1012.68
1009.55 1009.38 1009.20 1009.01 1008.81 1008.60 1008.41 1008.27 1008.20 1008.23 1008.39 1008.67 1009.06 1009.51 1009.97 1010.39 1010.73 1010.95 1011.03 1011.01 1010.89 1010.73 1010.57 1010.44 1010.37 1010.36 1010.42 1010.53 1010.67 1010.81 1010.96 1011.08 1011.20 1011.32 1011.43 1011.56 1011.70 1011.86 1012.03 1012.22 1012.41 1012.60 1012.80
1009.15 1009.02 1008.89 1008.72 1008.54 1008.34 1008.15 1007.99 1007.89 1007.89 1007.99 1008.22 1008.53 1008.92 1009.33 1009.72 1010.04 1010.28 1010.41 1010.45 1010.43 1010.39 1010.35 1010.35 1010.40 1010.52 1010.68 1010.89 1011.10 1011.32 1011.51 1011.68 1011.82 1011.94 1012.04 1012.15 1012.26 1012.38 1012.51 1012.64 1012.78 1012.93 1013.08
1008.58 1008.52 1008.44 1008.34 1008.20 1008.04 1007.86 1007.71 1007.60 1007.57 1007.63 1007.79 1008.04 1008.35 1008.70 1009.04 1009.34 1009.57 1009.73 1009.84 1009.92 1009.98 1010.07 1010.20 1010.39 1010.63 1010.91 1011.22 1011.54 1011.83 1012.09 1012.32 1012.49 1012.64 1012.75 1012.85 1012.94 1013.02 1013.10 1013.19 1013.28 1013.37 1013.47
1007.87 1007.87 1007.86 1007.83 1007.77 1007.66 1007.54 1007.41 1007.31 1007.26 1007.28 1007.39 1007.58 1007.82 1008.10 1008.39 1008.65 1008.88 1009.07 1009.23 1009.38 1009.54 1009.74 1009.99 1010.29 1010.66 1011.05 1011.47 1011.88 1012.27 1012.61 1012.90 1013.13 1013.32 1013.46 1013.56 1013.64 1013.70 1013.75 1013.79 1013.83 1013.88 1013.94
1007.03 1007.10 1007.18 1007.23 1007.24 1007.21 1007.15 1007.06 1006.98 1006.94 1006.94 1007.01 1007.15 1007.33 1007.55 1007.79 1008.03 1008.25 1008.45 1008.64 1008.85 1009.08 1009.36 1009.70 1010.09 1010.55 1011.04 1011.55 1012.05 1012.53 1012.96 1013.33 1013.63 1013.88 1014.06 1014.20 1014.29 1014.35 1014.38 1014.40 1014.41 1014.43 1014.46
1006.12 1006.25 1006.40 1006.54 1006.64 1006.69 1006.70 1006.66 1006.62 1006.59 1006.58 1006.63 1006.73 1006.88 1007.06 1007.26 1007.47 1007.67 1007.88 1008.09 1008.32 1008.59 1008.92 1009.30 1009.76 1010.27 1010.83 1011.41 1011.98 1012.54 1013.06 1013.52 1013.92 1014.24 1014.50 1014.70 1014.84 1014.92 1014.97 1014.98 1014.99 1014.99 1015.02
1005.16 1005.36 1005.58 1005.80 1005.98 1006.11 1006.18 1006.20 1006.20 1006.18 1006.19 1006.23 1006.31 1006.43 1006.59 1006.77 1006.96 1007.16 1007.35 1007.57 1007.80 1008.07 1008.40 1008.80 1009.27 1009.80 1010.39 1011.02 1011.66 1012.29 1012.90 1013.46 1013.96 1014.39 1014.75 1015.03 1015.24 1015.39 1015.48 1015.53 1015.55 1015.57 1015.60
1004.22 1004.46 1004.75 1005.04 1005.29 1005.48 1005.61 1005.68 1005.71 1005.72 1005.74 1005.78 1005.86 1005.98 1006.13 1006.30 1006.48 1006.66 1006.85 1007.04 1007.26 1007.51 1007.81 1008.19 1008.64 1009.16 1009.76 1010.41 1011.10 1011.80 1012.49 1013.15 1013.77 1014.32 1014.80 1015.20 1015.51 1015.75 1015.91 1016.02 1016.09 1016.15 1016.21
1003.32 1003.61 1003.95 1004.29 1004.59 1004.83 1005.00 1005.11 1005.16 1005.20 1005.23 1005.29 1005.38 1005.50 1005.65 1005.82 1006.00 1006.17 1006.34 1006.50 1006.68 1006.90 1007.16 1007.49 1007.90 1008.40 1008.98 1009.65 1010.36 1011.12 1011.90 1012.67 1013.40 1014.08 1014.69 1015.21 1015.65 1015.99 1016.25 1016.44 1016.58 1016.69 1016.79
1002.52 1002.83 1003.20 1003.57 1003.90 1004.17 1004.37 1004.49 1004.57 1004.62 1004.68 1004.75 1004.86 1004.99 1005.16 1005.33 1005.50 1005.66 1005.81 1005.95 1006.09 1006.26 1006.47 1006.75 1007.12 1007.58 1008.16 1008.82 1009.57 1010.38 1011.23 1012.09 1012.93 1013.72 1014.46 1015.10 1015.66 1016.11 1016.48 1016.77 1016.98 1017.16 1017.31
1001.83 1002.15 1002.52 1002.90 1003.24 1003.52 1003.72 1003.86 1003.96 1004.03 1004.10 1004.20 1004.32 1004.47 1004.65 1004.83 1004.99 1005.15 1005.28 1005.39 1005.49 1005.62 1005.79 1006.04 1006.37 1006.82 1007.38 1008.05 1008.82 1009.67 1010.58 1011.51 1012.44 1013.33 1014.16 1014.91 1015.56 1016.11 1016.58 1016.95 1017.24 1017.49 1017.70
1001.26 1001.57 1001.93 1002.29 1002.62 1002.89 1003.10 1003.25 1003.35 1003.44 1003.54 1003.66 1003.80 1003.97 1004.15 1004.34 1004.50 1004.65 1004.76 1004.85 1004.94 1005.05 1005.20 1005.42 1005.75 1006.19 1006.75 1007.43 1008.23 1009.11 1010.05 1011.03 1012.00 1012.94 1013.83 1014.64 1015.36 1015.99 1016.52 1016.96 1017.33 1017.63 1017.90
Thickness
5737 5737 5737 5736 5736 5736 5735 5736 5737 5736 5735 5733 5732 5731 5730 5730 5731 5730 5731 5732 5732 5733 5734 5734 5735 5735 5735 5735 5735 5734 5733 5732 5731 5729 5728 5726 5725 5724 5722 5721 5720 5720 5718
5733 5733 5733 5734 5734 5734 5734 5733 5734 5733 5733 5732 5730 5730 5730 5730 5730 5730 5730 5730 5730 5731 5732 5732 5733 5734 5734 5734 5734 5733 5733 5732 5731 5730 5728 5727 5725 5724 5723 5721 5720 5720 5719
5727 5728 5729 5730 5731 5731 5731 5730 5730 5730 5729 5728 5728 5728 5728 5729 5728 5728 5728 5729 5730 5731 5731 5732 5732 5733 5733 5734 5733 5732 5732 5731 5731 5730 5728 5727 5726 5724 5723 5722 5721 5720 5719
5723 5724 5725 5726 5727 5727 5727 5725 5724 5724 5724 5724 5724 5724 5726 5726 5727 5727 5728 5728 5729 5730 5731 5732 5732 5732 5732 5732 5732 5732 5731 5731 5730 5729 5728 5727 5726 5725 5724 5723 5722 5721 5720
5720 5721 5722 5723 5723 5722 5722 5721 5719 5719 5718 5719 5720 5721 5722 5723 5725 5726 5727 5728 5729 5730 5731 5731 5731 5732 5731 5731 5731 5730 5730 5730 5730 5729 5728 5726 5726 5725 5724 5723 5722 5722 5721
5716 5718 5718 5718 5718 5716 5716 5715 5714 5714 5713 5714 5716 5717 5718 5720 5723 5724 5725 5727 5728 5730 5730 5730 5730 5730 5731 5731 5730 5730 5729 5729 5729 5728 5727 5726 5725 5724 5724 5723 5722 5722 5721
5711 5713 5714 5713 5712 5712 5711 5710 5709 5708 5707 5708 5708 5709 5712 5716 5719 5722 5724 5725 5727 5729 5729 5729 5729 5728 5729 5729 5729 5729 5728 5728 5728 5728 5726 5725 5724 5724 5723 5722 5722 5721 5721
5709 5710 5708 5708 5707 5706 5705 5705 5704 5702 5702 5703 5702 5700 5701 5707 5714 5719 5721 5723 5724 5726 5727 5728 5727 5726 5726 5726 5727 5727 5727 5726 5726 5726 5725 5724 5723 5723 5722 5721 5720 5720 5721
5704 5704 5704 5704 5703 5702 5701 5700 5700 5699 5697 5698 5699 5698 5696 5698 5704 5711 5715 5718 5720 5722 5724 5724 5725 5724 5724 5724 5724 5724 5725 5724 5724 5724 5724 5723 5722 5721 5721 5720 5719 5719 5719
5696 5697 5698 5698 5698 5697 5697 5697 5697 5696 5695 5694 5694 5696 5698 5699 5699 5701 5708 5712 5715 5717 5720 5721 5722 5722 5722 5722 5721 5722 5722 5722 5722 5722 5722 5721 5720 5719 5718 5717 5716 5717 5718
5686 5688 5689 5691 5691 5691 5691 5692 5692 5692 5693 5692 5691 5691 5692 5693 5696 5695 5698 5704 5709 5713 5716 5718 5718 5718 5718 5718 5717 5718 5718 5718 5718 5719 5719 5719 5718 5716 5715 5714 5714 5714 5716
5674 5676 5679 5680 5682 5684 5685 5685 5687 5688 5688 5688 5689 5689 5690 5689 5690 5691 5691 5695 5700 5707 5711 5714 5714 5713 5713 5712 5713 5713 5713 5713 5713 5714 5714 5714 5714 5713 5712 5711 5711 5711 5713
5661 5663 5666 5669 5671 5674 5677 5679 5680 5681 5682 5683 5685 5686 5688 5689 5690 5689 5688 5690 5694 5700 5705 5709 5710 5709 5707 5706 5706 5706 5706 5706 5707 5707 5707 5708 5708 5707 5707 5707 5707 5709 5710
5648 5651 5653 5657 5660 5663 5667 5670 5672 5674 5676 5677 5679 5682 5683 5685 5686 5686 5686 5685 5687 5692 5696 5701 5704 5704 5702 5700 5698 5698 5698 5698 5699 5700 5700 5701 5701 5701 5701 5702 5703 5704 5705
5633 5637 5640 5644 5648 5652 5656 5659 5662 5665 5667 5670 5673 5675 5678 5680 5682 5683 5683 5683 5683 5684 5688 5693 5696 5696 5695 5693 5691 5690 5689 5689 5690 5691 5692 5692 5693 5693 5694 5696 5696 5697 5699
5616 5619 5623 5628 5632 5637 5642 5646 5650 5655 5658 5662 5665 5667 5670 5674 5676 5677 5678 5680 5681 5681 5682 5687 5689 5689 5688 5686 5684 5682 5680 5680 5680 5681 5682 5683 5684 5685 5686 5688 5688 5689 5691
5600 5602 5605 5609 5614 5620 5626 5631 5636 5641 5646 5651 5655 5659 5663 5666 5669 5671 5673 5674 5676 5677 5677 5681 5683 5683 5681 5679 5676 5674 5672 5671 5670 5671 5673 5674 5675 5677 5678 5680 5681 5682 5683
5585 5586 5588 5591 5596 5602 5608 5614 5620 5627 5632 5637 5644 5649 5653 5657 5661 5664 5666 5669 5670 5672 5673 5675 5677 5676 5675 5673 5669 5666 5663 5661 5660 5660 5662 5664 5666 5668 5669 5671 5672 5673 5674
5571 5572 5573 5575 5579 5584 5589 5596 5603 5610 5618 5624 5630 5637 5643 5647 5651 5655 5659 5662 5664 5667 5668 5670 5671 5671 5670 5667 5663 5658 5655 5652 5651 5650 5651 5653 5656 5658 5659 5661 5662 5663 5664
5558 5559 5561 5563 5565 5569 5573 5579 5585 5593 5601 5609 5616 5623 5630 5637 5643 5647 5651 5655 5658 5660 5661 5663 5665 5666 5665 5662 5658 5652 5647 5644 5642 5642 5642 5644 5645 5647 5649 5650 5652 5653 5653
5545 5546 5548 5551 5553 5556 5560 5564 5570 5577 5585 5593 5601 5609 5617 5625 5631 5637 5642 5647 5650 5653 5656 5658 5660 5661 5660 5657 5653 5648 5643 5637 5634 5633 5634 5634 5636 5637 5638 5639 5640 5641 5642
5528 5531 5534 5538 5542 5547 5551 5555 5558 5563 5569 5577 5585 5594 5603 5612 5620 5626 5632 5639 5644 5648 5652 5654 5657 5658 5659 5656 5650 5645 5640 5635 5629 5625 5627 5624 5626 5627 5627 5628 5628 5629 5630
5513 5517 5522 5525 5530 5535 5540 5545 5549 5552 5557 5563 5571 5579 5589 5600 5608 5614 5622 5629 5635 5643 5649 5653 5655 5658 5657 5655 5649 5642 5638 5634 5629 5623 5622 5617 5616 5616 5616 5616 5617 5618 5619
5500 5505 5510 5515 5519 5525 5530 5535 5539 5543 5547 5552 5559 5568 5577 5586 5594 5603 5612 5619 5628 5635 5642 5647 5652 5655 5655 5653 5649 5643 5636 5627 5621 5617 5617 5612 5609 5607 5606 5606 5607 5608 5609
5488 5493 5499 5505 5510 5516 5522 5527 5531 5535 5539 5544 5550 5557 5565 5575 5584 5593 5602 5611 5620 5628 5634 5640 5645 5648 5649 5647 5643 5635 5629 5624 5616 5611 5610 5608 5603 5600 5599 5598 5598 5599 5600
5480 5486 5491 5496 5502 5508 5514 5519 5524 5527 5532 5537 5542 5547 5555 5563 5572 5581 5593 5604 5613 5621 5627 5632 5636 5639 5641 5640 5638 5637 5633 5626 5618 5609 5606 5605 5601 5600 5595 5591 5591 5591 5592